Location: Volkssternwarte_EN
(51.3230°N, 7.4010°E)
Time: 14:29:40
(UTC+02:00)

N. Korean satellite - Pass Details

Date: 02 October 2021
Orbit: 450 x 495 km, 97.3° (Epoch: 23 October)

Event Time Altitude Azimuth Distance (km) Brightness Sun altitude
Rises 06:54:30 0° 14° (NNE) 2,548 10.4 -6.8°
Reaches altitude 10° 06:56:34 10° 15° (NNE) 1,671 9.5 -6.5°
Maximum altitude 07:00:10 81° 103° (ESE) 499 6.7 -5.9°
Drops below altitude 10° 07:03:47 10° 191° (S) 1,678 9.2 -5.4°
Sets 07:05:52 0° 192° (SSW) 2,560 10.1 -5.0°
